timestamp,wind_dir_avg,wind_spd_max_dir,wind_spd_avg,wind_spd_gust,battery_voltage,lat,long
2019-01-01 00:00:00+00:00,325.0,341.0,6.91,10.43,,47.59359,-54.27349
2019-01-01 00:10:00+00:00,318.0,336.0,6.17,9.93,,47.59359,-54.27349
2019-01-01 00:20:00+00:00,325.0,331.0,8.42,10.23,,47.59359,-54.27349
2019-01-01 00:30:00+00:00,321.0,333.0,5.74,9.51,,47.59359,-54.27349
2019-01-01 00:40:00+00:00,315.0,324.0,5.77,7.66,,47.59359,-54.27349
2019-01-01 00:50:00+00:00,318.0,325.0,5.66,7.71,,47.59359,-54.27349
2019-01-01 01:00:00+00:00,316.0,325.0,6.14,8.54,,47.59359,-54.27349
2019-01-01 01:10:00+00:00,324.0,330.0,5.55,8.57,,47.59359,-54.27349
2019-01-01 01:20:00+00:00,319.0,328.0,6.09,8.99,,47.59359,-54.27349
2019-01-01 01:30:00+00:00,323.0,319.0,4.93,6.58,,47.59359,-54.27349
2019-01-01 01:40:00+00:00,323.0,321.0,4.9,6.8,,47.59359,-54.27349
2019-01-01 01:50:00+00:00,329.0,332.0,6.65,8.47,,47.59359,-54.27349
2019-01-01 02:00:00+00:00,331.0,337.0,8.34,10.57,,47.59359,-54.27349
2019-01-01 02:10:00+00:00,329.0,322.0,6.59,8.46,,47.59359,-54.27349
2019-01-01 02:20:00+00:00,329.0,332.0,8.46,11.19,,47.59359,-54.27349
2019-01-01 02:30:00+00:00,328.0,342.0,8.21,10.93,,47.59359,-54.27349
2019-01-01 02:40:00+00:00,328.0,331.0,8.15,10.31,,47.59359,-54.27349
2019-01-01 02:50:00+00:00,328.0,312.0,9.02,12.12,,47.59359,-54.27349
2019-01-01 03:00:00+00:00,332.0,337.0,11.56,14.02,,47.59359,-54.27349
2019-01-01 03:10:00+00:00,332.0,326.0,12.63,15.25,,47.59359,-54.27349
2019-01-01 03:20:00+00:00,341.0,345.0,13.03,14.82,,47.59359,-54.27349
2019-01-01 03:30:00+00:00,340.0,343.0,12.02,15.12,,47.59359,-54.27349
2019-01-01 03:40:00+00:00,326.0,323.0,11.95,14.43,,47.59359,-54.27349
2019-01-01 03:50:00+00:00,329.0,328.0,9.82,12.79,,47.59359,-54.27349
2019-01-01 04:00:00+00:00,327.0,329.0,12.34,15.66,,47.59359,-54.27349
2019-01-01 04:10:00+00:00,325.0,327.0,12.9,15.45,,47.59359,-54.27349
2019-01-01 04:20:00+00:00,330.0,341.0,13.27,14.77,,47.59359,-54.27349
2019-01-01 04:30:00+00:00,326.0,326.0,12.29,14.36,,47.59359,-54.27349
2019-01-01 04:40:00+00:00,327.0,324.0,13.78,16.39,,47.59359,-54.27349
2019-01-01 04:50:00+00:00,324.0,322.0,13.06,16.88,,47.59359,-54.27349
2019-01-01 05:00:00+00:00,326.0,325.0,12.17,14.94,,47.59359,-54.27349
2019-01-01 05:10:00+00:00,326.0,319.0,11.78,14.05,,47.59359,-54.27349
2019-01-01 05:20:00+00:00,325.0,324.0,10.51,12.45,,47.59359,-54.27349
2019-01-01 05:30:00+00:00,316.0,324.0,9.35,11.34,,47.59359,-54.27349
2019-01-01 05:40:00+00:00,315.0,312.0,9.14,10.79,,47.59359,-54.27349
2019-01-01 05:50:00+00:00,316.0,317.0,9.74,11.35,,47.59359,-54.27349
2019-01-01 06:00:00+00:00,316.0,310.0,9.32,10.51,,47.59359,-54.27349
2019-01-01 06:10:00+00:00,315.0,327.0,9.2,10.96,,47.59359,-54.27349
2019-01-01 06:20:00+00:00,314.0,315.0,8.54,9.9,,47.59359,-54.27349
2019-01-01 06:30:00+00:00,314.0,314.0,8.2,9.65,,47.59359,-54.27349
2019-01-01 06:40:00+00:00,316.0,320.0,8.14,9.25,,47.59359,-54.27349
2019-01-01 06:50:00+00:00,311.0,313.0,7.98,9.77,,47.59359,-54.27349
2019-01-01 07:00:00+00:00,312.0,312.0,8.52,9.58,,47.59359,-54.27349
2019-01-01 07:10:00+00:00,314.0,321.0,8.28,9.61,,47.59359,-54.27349
2019-01-01 07:20:00+00:00,313.0,310.0,8.11,9.14,,47.59359,-54.27349
2019-01-01 07:30:00+00:00,317.0,315.0,7.96,8.94,,47.59359,-54.27349
2019-01-01 07:40:00+00:00,311.0,308.0,8.37,9.79,,47.59359,-54.27349
2019-01-01 07:50:00+00:00,312.0,319.0,8.13,9.21,,47.59359,-54.27349
2019-01-01 08:00:00+00:00,306.0,312.0,7.62,9.53,,47.59359,-54.27349
2019-01-01 08:10:00+00:00,309.0,312.0,8.0,9.54,,47.59359,-54.27349
2019-01-01 08:20:00+00:00,311.0,311.0,7.57,9.15,,47.59359,-54.27349
2019-01-01 08:30:00+00:00,310.0,312.0,7.7,9.08,,47.59359,-54.27349
2019-01-01 08:40:00+00:00,311.0,308.0,7.72,9.18,,47.59359,-54.27349
2019-01-01 08:50:00+00:00,314.0,311.0,8.11,9.99,,47.59359,-54.27349
2019-01-01 09:00:00+00:00,320.0,325.0,8.27,9.76,,47.59359,-54.27349
2019-01-01 09:10:00+00:00,316.0,311.0,7.81,9.67,,47.59359,-54.27349
2019-01-01 09:20:00+00:00,328.0,321.0,9.19,10.79,,47.59359,-54.27349
2019-01-01 09:30:00+00:00,325.0,321.0,7.74,9.64,,47.59359,-54.27349
2019-01-01 09:40:00+00:00,328.0,334.0,7.94,9.66,,47.59359,-54.27349
2019-01-01 09:50:00+00:00,324.0,325.0,7.23,9.21,,47.59359,-54.27349
2019-01-01 10:00:00+00:00,323.0,318.0,7.78,8.97,,47.59359,-54.27349
2019-01-01 10:10:00+00:00,323.0,325.0,8.16,9.43,,47.59359,-54.27349
2019-01-01 10:20:00+00:00,322.0,321.0,5.96,6.84,,47.59359,-54.27349
2019-01-01 10:30:00+00:00,310.0,320.0,6.0,7.29,,47.59359,-54.27349
2019-01-01 10:40:00+00:00,314.0,314.0,5.99,6.96,,47.59359,-54.27349
2019-01-01 10:50:00+00:00,302.0,298.0,5.2,6.49,,47.59359,-54.27349
2019-01-01 11:00:00+00:00,293.0,293.0,4.9,5.54,,47.59359,-54.27349
2019-01-01 11:10:00+00:00,295.0,294.0,3.73,4.32,,47.59359,-54.27349
2019-01-01 11:20:00+00:00,292.0,316.0,3.8,4.71,,47.59359,-54.27349
2019-01-01 11:30:00+00:00,301.0,315.0,3.37,4.41,,47.59359,-54.27349
2019-01-01 11:40:00+00:00,302.0,305.0,3.3,3.99,,47.59359,-54.27349
2019-01-01 11:50:00+00:00,308.0,305.0,4.62,5.79,,47.59359,-54.27349
2019-01-01 12:00:00+00:00,313.0,311.0,5.28,6.07,,47.59359,-54.27349
2019-01-01 12:10:00+00:00,320.0,323.0,5.33,5.98,,47.59359,-54.27349
2019-01-01 12:20:00+00:00,308.0,305.0,5.81,6.48,,47.59359,-54.27349
2019-01-01 12:30:00+00:00,313.0,317.0,5.24,6.21,,47.59359,-54.27349
2019-01-01 12:40:00+00:00,302.0,306.0,3.23,4.06,,47.59359,-54.27349
2019-01-01 12:50:00+00:00,307.0,316.0,3.26,4.24,,47.59359,-54.27349
2019-01-01 13:00:00+00:00,311.0,313.0,4.08,5.13,,47.59359,-54.27349
2019-01-01 13:10:00+00:00,294.0,296.0,3.02,3.6,,47.59359,-54.27349
2019-01-01 13:20:00+00:00,293.0,304.0,3.04,3.65,,47.59359,-54.27349
2019-01-01 13:30:00+00:00,316.0,321.0,3.49,4.31,,47.59359,-54.27349
2019-01-01 13:40:00+00:00,299.0,288.0,3.12,4.16,,47.59359,-54.27349
2019-01-01 13:50:00+00:00,355.0,357.0,1.74,2.3,,47.59359,-54.27349
2019-01-01 14:00:00+00:00,278.0,280.0,1.48,1.99,,47.59359,-54.27349
2019-01-01 14:10:00+00:00,203.0,209.0,1.7,2.16,,47.59359,-54.27349
2019-01-01 14:20:00+00:00,259.0,251.0,2.24,2.59,,47.59359,-54.27349
2019-01-01 14:30:00+00:00,251.0,258.0,2.46,3.56,,47.59359,-54.27349
2019-01-01 14:40:00+00:00,249.0,250.0,2.49,3.15,,47.59359,-54.27349
2019-01-01 14:50:00+00:00,197.0,194.0,1.62,2.29,,47.59359,-54.27349
2019-01-01 15:00:00+00:00,204.0,209.0,3.27,4.08,,47.59359,-54.27349
2019-01-01 15:10:00+00:00,163.0,161.0,0.31,0.88,,47.59359,-54.27349
2019-01-01 15:20:00+00:00,112.0,122.0,1.36,2.2,,47.59359,-54.27349
2019-01-01 15:30:00+00:00,187.0,174.0,0.54,0.98,,47.59359,-54.27349
2019-01-01 15:40:00+00:00,221.0,207.0,0.77,1.29,,47.59359,-54.27349
2019-01-01 15:50:00+00:00,191.0,193.0,1.81,2.15,,47.59359,-54.27349
2019-01-01 16:00:00+00:00,177.0,165.0,2.94,3.28,,47.59359,-54.27349
2019-01-01 16:10:00+00:00,160.0,173.0,2.34,3.13,,47.59359,-54.27349
2019-01-01 16:20:00+00:00,183.0,180.0,1.1,2.69,,47.59359,-54.27349
2019-01-01 16:30:00+00:00,174.0,173.0,2.41,3.39,,47.59359,-54.27349
2019-01-01 16:40:00+00:00,216.0,217.0,3.12,3.63,,47.59359,-54.27349
2019-01-01 16:50:00+00:00,213.0,212.0,3.5,4.29,,47.59359,-54.27349
2019-01-01 17:00:00+00:00,226.0,225.0,3.05,3.61,,47.59359,-54.27349
2019-01-01 17:10:00+00:00,213.0,218.0,3.14,4.05,,47.59359,-54.27349
2019-01-01 17:20:00+00:00,176.0,177.0,3.75,4.37,,47.59359,-54.27349
2019-01-01 17:30:00+00:00,208.0,213.0,4.04,4.75,,47.59359,-54.27349
2019-01-01 17:40:00+00:00,236.0,218.0,4.11,5.52,,47.59359,-54.27349
2019-01-01 17:50:00+00:00,209.0,207.0,4.16,5.11,,47.59359,-54.27349
2019-01-01 18:00:00+00:00,215.0,207.0,2.83,3.52,,47.59359,-54.27349
2019-01-01 18:10:00+00:00,195.0,195.0,4.59,5.18,,47.59359,-54.27349
2019-01-01 18:20:00+00:00,204.0,200.0,3.09,3.97,,47.59359,-54.27349
2019-01-01 18:30:00+00:00,191.0,169.0,4.56,5.3,,47.59359,-54.27349
2019-01-01 18:40:00+00:00,173.0,183.0,4.14,5.29,,47.59359,-54.27349
2019-01-01 18:50:00+00:00,155.0,158.0,4.84,5.6,,47.59359,-54.27349
2019-01-01 19:00:00+00:00,183.0,190.0,4.58,6.13,,47.59359,-54.27349
2019-01-01 19:10:00+00:00,179.0,174.0,5.26,6.03,,47.59359,-54.27349
2019-01-01 19:20:00+00:00,177.0,170.0,4.85,5.92,,47.59359,-54.27349
2019-01-01 19:30:00+00:00,186.0,188.0,5.66,6.84,,47.59359,-54.27349
2019-01-01 19:40:00+00:00,177.0,175.0,7.21,8.44,,47.59359,-54.27349
2019-01-01 19:50:00+00:00,169.0,173.0,8.43,9.31,,47.59359,-54.27349
2019-01-01 20:00:00+00:00,171.0,167.0,7.72,8.8,,47.59359,-54.27349
2019-01-01 20:10:00+00:00,171.0,173.0,7.58,8.23,,47.59359,-54.27349
2019-01-01 20:20:00+00:00,175.0,169.0,6.97,8.42,,47.59359,-54.27349
2019-01-01 20:30:00+00:00,174.0,184.0,8.44,9.89,,47.59359,-54.27349
2019-01-01 20:40:00+00:00,165.0,165.0,8.91,9.78,,47.59359,-54.27349
2019-01-01 20:50:00+00:00,168.0,165.0,9.5,10.48,,47.59359,-54.27349
2019-01-01 21:00:00+00:00,168.0,172.0,9.67,10.99,,47.59359,-54.27349
2019-01-01 21:10:00+00:00,164.0,167.0,9.31,10.57,,47.59359,-54.27349
2019-01-01 21:20:00+00:00,163.0,166.0,8.3,9.86,,47.59359,-54.27349
2019-01-01 21:30:00+00:00,168.0,171.0,8.84,9.94,,47.59359,-54.27349
2019-01-01 21:40:00+00:00,167.0,169.0,9.78,13.11,,47.59359,-54.27349
2019-01-01 21:50:00+00:00,163.0,164.0,11.47,14.8,,47.59359,-54.27349
2019-01-01 22:00:00+00:00,161.0,164.0,11.03,14.84,,47.59359,-54.27349
2019-01-01 22:10:00+00:00,162.0,163.0,10.3,13.95,,47.59359,-54.27349
2019-01-01 22:20:00+00:00,163.0,167.0,9.26,11.42,,47.59359,-54.27349
2019-01-01 22:30:00+00:00,162.0,168.0,10.49,14.43,,47.59359,-54.27349
2019-01-01 22:40:00+00:00,161.0,169.0,9.86,13.72,,47.59359,-54.27349
2019-01-01 22:50:00+00:00,155.0,165.0,10.31,14.72,,47.59359,-54.27349
2019-01-01 23:00:00+00:00,152.0,159.0,10.35,13.41,,47.59359,-54.27349
2019-01-01 23:10:00+00:00,155.0,160.0,13.07,15.84,,47.59359,-54.27349
2019-01-01 23:20:00+00:00,154.0,150.0,15.17,16.3,,47.59359,-54.27349
2019-01-01 23:30:00+00:00,155.0,159.0,10.92,14.76,,47.59359,-54.27349
2019-01-01 23:40:00+00:00,147.0,152.0,9.82,10.78,,47.59359,-54.27349
2019-01-01 23:50:00+00:00,156.0,159.0,11.73,15.91,,47.59359,-54.27349
